| time (UTC) | temp F | wind direction | speed knots | gust knots | rain 1hr in | rain 24hr in | rain mn in | humidity % | barometer mb |
| 20260505230203 | 60 | 221 | 9.6 | 15.6 | 0.00 | 0.00 | 0.00 | 40 | 1013.2 |
| 20260505224703 | 60 | 232 | 8.7 | 17.4 | 0.00 | 0.00 | 0.00 | 42 | 1013.2 |
| 20260505224203 | 60 | 216 | 7.8 | 13.9 | 0.00 | 0.00 | 0.00 | 41 | 1013.2 |
| 20260505223703 | 60 | 224 | 7.8 | 14.8 | 0.00 | 0.00 | 0.00 | 41 | 1013.2 |
| 20260505223203 | 60 | 223 | 7.8 | 17.4 | 0.00 | 0.00 | 0.00 | 41 | 1013.2 |
| 20260505221703 | 61 | 244 | 8.7 | 17.4 | 0.00 | 0.00 | 0.00 | 38 | 1015.0 |
| 20260505221204 | 62 | 231 | 7.0 | 14.8 | 0.00 | 0.00 | 0.00 | 38 | 1015.0 |
| 20260505220703 | 62 | 195 | 7.0 | 17.4 | 0.00 | 0.00 | 0.00 | 37 | 1015.0 |
| 20260505220203 | 63 | 222 | 6.1 | 14.8 | 0.00 | 0.00 | 0.00 | 36 | 1015.0 |
| 20260505214703 | 64 | 241 | 8.7 | 12.2 | 0.00 | 0.00 | 0.00 | 36 | 1015.0 |
| 20260505211704 | 63 | 212 | 6.1 | 11.3 | 0.00 | 0.00 | 0.00 | 38 | 1015.0 |
| 20260505211204 | 64 | 238 | 9.6 | 14.8 | 0.00 | 0.00 | 0.00 | 37 | 1015.0 |
| 20260505210704 | 64 | 253 | 6.1 | 11.3 | 0.00 | 0.00 | 0.00 | 37 | 1015.0 |
| 20260505210204 | 64 | 264 | 6.1 | 14.8 | 0.00 | 0.00 | 0.00 | 38 | 1015.0 |
| 20260505204703 | 62 | 206 | 7.0 | 13.9 | 0.00 | 0.00 | 0.00 | 40 | 1015.0 |
| 20260505201203 | 61 | 275 | 5.2 | 13.0 | 0.00 | 0.00 | 0.00 | 43 | 1015.0 |
| 20260505200703 | 59 | 271 | 6.1 | 14.8 | 0.00 | 0.00 | 0.00 | 46 | 1015.0 |
| 20260505200204 | 58 | 240 | 9.6 | 17.4 | 0.00 | 0.00 | 0.00 | 46 | 1015.0 |
| 20260505194703 | 58 | 243 | 11.3 | 17.4 | 0.00 | 0.00 | 0.00 | 47 | 1015.0 |
| 20260505194203 | 59 | 251 | 11.3 | 17.4 | 0.00 | 0.00 | 0.00 | 46 | 1015.0 |
| 20260505193704 | 59 | 241 | 6.1 | 12.2 | 0.00 | 0.00 | 0.00 | 43 | 1015.0 |
| 20260505193203 | 60 | 249 | 8.7 | 13.9 | 0.00 | 0.00 | 0.00 | 44 | 1015.0 |
| 20260505191703 | 58 | 268 | 7.8 | 12.2 | 0.00 | 0.00 | 0.00 | 47 | 1015.0 |
| 20260505191203 | 58 | 247 | 8.7 | 13.9 | 0.00 | 0.00 | 0.00 | 47 | 1015.0 |
| 20260505190704 | 57 | 264 | 7.8 | 12.2 | 0.00 | 0.00 | 0.00 | 50 | 1015.0 |
| 20260505190203 | 57 | 235 | 6.1 | 14.8 | 0.00 | 0.00 | 0.00 | 52 | 1016.0 |
| 20260505184703 | 60 | 219 | 6.1 | 10.4 | 0.00 | 0.00 | 0.00 | 39 | 1016.0 |
| 20260505184203 | 60 | 247 | 6.1 | 12.2 | 0.00 | 0.00 | 0.00 | 39 | 1016.0 |
| 20260505183703 | 59 | 200 | 3.5 | 7.8 | 0.00 | 0.00 | 0.00 | 37 | 1016.0 |
| 20260505183203 | 59 | 184 | 1.7 | 10.4 | 0.00 | 0.00 | 0.00 | 38 | 1016.0 |
| 20260505181203 | 59 | 152 | 2.6 | 7.0 | 0.00 | 0.00 | 0.00 | 37 | 1016.0 |
| 20260505180204 | 59 | 171 | 5.2 | 12.2 | 0.00 | 0.00 | 0.00 | 35 | 1016.0 |
| 20260505174703 | 59 | 208 | 1.7 | 7.0 | 0.00 | 0.00 | 0.00 | 37 | 1016.0 |
| 20260505174204 | 59 | 226 | 3.5 | 6.1 | 0.00 | 0.00 | 0.00 | 36 | 1016.0 |
| 20260505173204 | 60 | 141 | 0.9 | 6.1 | 0.00 | 0.00 | 0.00 | 35 | 1016.0 |
| 20260505171203 | 58 | 250 | 4.3 | 7.0 | 0.00 | 0.00 | 0.00 | 37 | 1016.0 |
| 20260505170204 | 57 | 141 | 2.6 | 8.7 | 0.00 | 0.00 | 0.00 | 38 | 1016.0 |
| 20260505164704 | 55 | 214 | 4.3 | 10.4 | 0.00 | 0.00 | 0.00 | 40 | 1016.0 |
| 20260505164203 | 55 | 254 | 5.2 | 10.4 | 0.00 | 0.00 | 0.00 | 41 | 1016.0 |
| 20260505163703 | 54 | 202 | 1.7 | 10.4 | 0.00 | 0.00 | 0.00 | 42 | 1016.0 |
| 20260505163203 | 54 | 226 | 4.3 | 10.4 | 0.00 | 0.00 | 0.00 | 42 | 1016.0 |
| 20260505161703 | 54 | 251 | 4.3 | 8.7 | 0.00 | 0.00 | 0.00 | 44 | 1016.0 |
| 20260505161203 | 54 | 214 | 4.3 | 7.0 | 0.00 | 0.00 | 0.00 | 44 | 1016.0 |
| 20260505160203 | 54 | 256 | 4.3 | 11.3 | 0.00 | 0.00 | 0.00 | 43 | 1016.0 |
| 20260505153203 | 54 | 256 | 3.5 | 10.4 | 0.00 | 0.00 | 0.00 | 43 | 1016.2 |
| 20260505151704 | 54 | 271 | 5.2 | 10.4 | 0.00 | 0.00 | 0.00 | 42 | 1016.1 |
| 20260505151204 | 54 | 265 | 4.3 | 10.4 | 0.00 | 0.00 | 0.00 | 43 | 1016.1 |
| 20260505150704 | 54 | 275 | 6.1 | 10.4 | 0.00 | 0.00 | 0.00 | 43 | 1016.1 |
| 20260505150203 | 54 | 260 | 6.1 | 12.2 | 0.00 | 0.00 | 0.00 | 42 | 1016.1 |
| 20260505140204 | 54 | 255 | 4.3 | 10.4 | 0.00 | 0.00 | 0.00 | 44 | 1016.0 |
| 20260505130202 | 49 | 257 | 4.3 | 6.1 | 0.00 | 0.00 | 0.00 | 48 | 1016.1 |
| 20260505124704 | 48 | 254 | 0.9 | 2.6 | 0.00 | 0.00 | 0.00 | 49 | 1016.1 |
| 20260505124203 | 48 | 247 | 0.9 | 2.6 | 0.00 | 0.00 | 0.00 | 48 | 1016.1 |
| 20260505123703 | 48 | 246 | 1.7 | 2.6 | 0.00 | 0.00 | 0.00 | 47 | 1016.1 |
| 20260505123204 | 48 | 244 | 0.0 | 2.6 | 0.00 | 0.00 | 0.00 | 46 | 1016.1 |
| 20260505121704 | 49 | 243 | 0.0 | 0.0 | 0.00 | 0.00 | 0.00 | 43 | 1015.8 |
| 20260505121204 | 49 | 243 | 0.0 | 0.0 | 0.00 | 0.00 | 0.00 | 43 | 1015.8 |
| 20260505120704 | 49 | 243 | 0.0 | 0.0 | 0.00 | 0.00 | 0.00 | 43 | 1015.8 |
| 20260505120203 | 50 | 243 | 0.0 | 2.6 | 0.00 | 0.00 | 0.00 | 43 | 1015.8 |
| 20260505114704 | 50 | 243 | 0.0 | 0.0 | 0.00 | 0.00 | 0.00 | 42 | 1015.8 |
| 20260505114203 | 50 | 243 | 0.0 | 0.0 | 0.00 | 0.00 | 0.00 | 42 | 1015.8 |
| 20260505113703 | 50 | 243 | 0.0 | 0.0 | 0.00 | 0.00 | 0.00 | 42 | 1015.8 |
| 20260505113204 | 51 | 243 | 1.7 | 5.2 | 0.00 | 0.00 | 0.00 | 41 | 1015.8 |
| 20260505111703 | 51 | 248 | 2.6 | 5.2 | 0.00 | 0.00 | 0.00 | 41 | 1015.8 |
| 20260505111204 | 51 | 253 | 2.6 | 5.2 | 0.00 | 0.00 | 0.00 | 40 | 1015.8 |
| 20260505110703 | 51 | 254 | 1.7 | 2.6 | 0.00 | 0.00 | 0.00 | 40 | 1015.8 |
| 20260505101703 | 53 | 271 | 1.7 | 2.6 | 0.00 | 0.00 | 0.00 | 37 | 1015.6 |
| 20260505101205 | 53 | 271 | 0.9 | 2.6 | 0.00 | 0.00 | 0.00 | 37 | 1015.6 |
| 20260505100203 | 53 | 271 | 1.7 | 4.3 | 0.00 | 0.00 | 0.00 | 37 | 1015.6 |
| 20260505094203 | 53 | 281 | 1.7 | 5.2 | 0.00 | 0.00 | 0.00 | 37 | 1015.6 |
| 20260505093704 | 53 | 270 | 2.6 | 6.1 | 0.00 | 0.00 | 0.00 | 37 | 1015.6 |
| 20260505091703 | 53 | 297 | 1.7 | 4.3 | 0.00 | 0.00 | 0.00 | 38 | 1015.6 |
| 20260505091204 | 53 | 282 | 2.6 | 5.2 | 0.00 | 0.00 | 0.00 | 38 | 1015.6 |
| 20260505090703 | 53 | 265 | 4.3 | 10.4 | 0.00 | 0.00 | 0.00 | 38 | 1016.5 |
| 20260505090204 | 53 | 269 | 4.3 | 8.7 | 0.00 | 0.00 | 0.00 | 38 | 1016.5 |
| 20260505084704 | 53 | 299 | 0.9 | 1.7 | 0.00 | 0.00 | 0.00 | 37 | 1016.5 |
| 20260505084204 | 53 | 299 | 0.9 | 2.6 | 0.00 | 0.00 | 0.00 | 36 | 1016.5 |
| 20260505083705 | 53 | 300 | 0.9 | 2.6 | 0.00 | 0.00 | 0.00 | 36 | 1016.5 |
| 20260505083203 | 54 | 300 | 0.0 | 2.6 | 0.00 | 0.00 | 0.00 | 35 | 1016.5 |
| 20260505081704 | 55 | 300 | 0.9 | 2.6 | 0.00 | 0.00 | 0.00 | 34 | 1016.5 |
| 20260505081203 | 55 | 300 | 1.7 | 2.6 | 0.00 | 0.00 | 0.00 | 34 | 1016.5 |
| 20260505080703 | 55 | 320 | 0.0 | 0.0 | 0.00 | 0.00 | 0.00 | 33 | 1016.5 |
| 20260505074703 | 56 | 320 | 0.0 | 0.9 | 0.00 | 0.00 | 0.00 | 32 | 1015.9 |
| 20260505074204 | 57 | 320 | 0.0 | 1.7 | 0.00 | 0.00 | 0.00 | 32 | 1015.9 |
| 20260505073703 | 57 | 320 | 0.0 | 1.7 | 0.00 | 0.00 | 0.00 | 31 | 1015.9 |
| 20260505073203 | 57 | 320 | 0.9 | 6.1 | 0.00 | 0.00 | 0.00 | 31 | 1015.9 |
| 20260505071704 | 57 | 281 | 1.7 | 4.3 | 0.00 | 0.00 | 0.00 | 30 | 1015.9 |
| 20260505071203 | 57 | 292 | 1.7 | 5.2 | 0.00 | 0.00 | 0.00 | 30 | 1015.9 |
| 20260505070703 | 57 | 294 | 3.5 | 7.8 | 0.00 | 0.00 | 0.00 | 30 | 1015.9 |
| 20260505070203 | 57 | 315 | 1.7 | 10.4 | 0.00 | 0.00 | 0.00 | 30 | 1015.9 |
| 20260505064204 | 58 | 274 | 4.3 | 7.8 | 0.00 | 0.00 | 0.00 | 31 | 1015.9 |
| 20260505063703 | 58 | 277 | 2.6 | 8.7 | 0.00 | 0.00 | 0.00 | 31 | 1015.9 |
| 20260505063204 | 58 | 296 | 1.7 | 8.7 | 0.00 | 0.00 | 0.00 | 31 | 1015.9 |
| 20260505061203 | 58 | 269 | 1.7 | 2.6 | 0.00 | 0.00 | 0.00 | 31 | 1015.9 |
| 20260505060703 | 59 | 252 | 1.7 | 5.2 | 0.00 | 0.00 | 0.00 | 31 | 1015.9 |
| 20260505060203 | 59 | 268 | 4.3 | 8.7 | 0.00 | 0.00 | 0.00 | 31 | 1015.9 |
| 20260505054703 | 59 | 248 | 4.3 | 7.8 | 0.00 | 0.00 | 0.00 | 31 | 1015.9 |
| 20260505053703 | 59 | 248 | 5.2 | 10.4 | 0.00 | 0.00 | 0.00 | 31 | 1015.7 |
| 20260505051703 | 58 | 248 | 4.3 | 7.0 | 0.00 | 0.00 | 0.00 | 32 | 1015.7 |
| 20260505051203 | 59 | 263 | 2.6 | 5.2 | 0.00 | 0.00 | 0.00 | 32 | 1015.7 |
| 20260505050703 | 59 | 251 | 2.6 | 5.2 | 0.00 | 0.00 | 0.00 | 32 | 1015.7 |
| 20260505050203 | 59 | 281 | 0.9 | 4.3 | 0.00 | 0.00 | 0.00 | 32 | 1015.9 |
| 20260505041703 | 60 | 337 | 0.0 | 2.6 | 0.00 | 0.00 | 0.00 | 30 | 1016.0 |
| 20260505041203 | 60 | 339 | 0.9 | 2.6 | 0.00 | 0.00 | 0.00 | 30 | 1016.0 |
| 20260505040703 | 60 | 339 | 0.9 | 2.6 | 0.00 | 0.00 | 0.00 | 29 | 1015.3 |
| 20260505034703 | 61 | 339 | 0.0 | 5.2 | 0.00 | 0.00 | 0.00 | 28 | 1015.3 |
| 20260505034204 | 61 | 340 | 0.9 | 1.7 | 0.00 | 0.00 | 0.00 | 28 | 1015.3 |
| 20260505033204 | 61 | 302 | 1.7 | 7.8 | 0.00 | 0.00 | 0.00 | 28 | 1015.3 |
| 20260505031704 | 62 | 294 | 1.7 | 4.3 | 0.00 | 0.00 | 0.00 | 26 | 1015.3 |
| 20260505031203 | 62 | 310 | 0.9 | 2.6 | 0.00 | 0.00 | 0.00 | 26 | 1015.3 |
| 20260505030703 | 62 | 310 | 1.7 | 4.3 | 0.00 | 0.00 | 0.00 | 26 | 1015.3 |
| 20260505024703 | 62 | 288 | 2.6 | 8.7 | 0.00 | 0.00 | 0.00 | 25 | 1014.9 |
| 20260505024204 | 63 | 288 | 2.6 | 7.8 | 0.00 | 0.00 | 0.00 | 24 | 1014.9 |
| 20260505023703 | 63 | 280 | 3.5 | 7.8 | 0.00 | 0.00 | 0.00 | 24 | 1014.9 |
| 20260505023203 | 63 | 270 | 3.5 | 8.7 | 0.00 | 0.00 | 0.00 | 24 | 1014.9 |
| 20260505021705 | 63 | 278 | 4.3 | 11.3 | 0.00 | 0.00 | 0.00 | 23 | 1014.9 |
| 20260505020704 | 64 | 285 | 6.1 | 10.4 | 0.00 | 0.00 | 0.00 | 22 | 1014.6 |
| 20260505020204 | 64 | 285 | 2.6 | 10.4 | 0.00 | 0.00 | 0.00 | 22 | 1014.6 |
| 20260505014204 | 65 | 278 | 4.3 | 10.4 | 0.00 | 0.00 | 0.00 | 21 | 1014.6 |
| 20260505013703 | 65 | 284 | 6.1 | 11.3 | 0.00 | 0.00 | 0.00 | 21 | 1014.6 |
| 20260505013203 | 65 | 271 | 5.2 | 12.2 | 0.00 | 0.00 | 0.00 | 20 | 1014.6 |
| 20260505011704 | 66 | 272 | 6.1 | 11.3 | 0.00 | 0.00 | 0.00 | 20 | 1014.6 |
| 20260505011204 | 66 | 279 | 6.1 | 11.3 | 0.00 | 0.00 | 0.00 | 20 | 1014.6 |
| 20260505010703 | 66 | 263 | 5.2 | 10.4 | 0.00 | 0.00 | 0.00 | 20 | 1014.6 |
| 20260505010203 | 66 | 294 | 5.2 | 13.9 | 0.00 | 0.00 | 0.00 | 20 | 1014.6 |
| 20260505004703 | 67 | 273 | 7.0 | 11.3 | 0.00 | 0.00 | 0.00 | 19 | 1014.6 |
| 20260505004203 | 67 | 279 | 4.3 | 10.4 | 0.00 | 0.00 | 0.00 | 19 | 1014.6 |
| 20260505003703 | 67 | 299 | 6.1 | 13.0 | 0.00 | 0.00 | 0.00 | 19 | 1014.6 |
| 20260505003203 | 67 | 277 | 5.2 | 14.8 | 0.00 | 0.00 | 0.00 | 19 | 1014.6 |
| 20260505001704 | 68 | 260 | 7.0 | 12.2 | 0.00 | 0.00 | 0.00 | 19 | 1015.2 |
| 20260505001203 | 68 | 273 | 6.1 | 15.6 | 0.00 | 0.00 | 0.00 | 19 | 1015.2 |
| 20260505000704 | 68 | 260 | 7.8 | 11.3 | 0.00 | 0.00 | 0.00 | 19 | 1015.2 |
| 20260505000204 | 68 | 279 | 7.8 | 15.6 | 0.00 | 0.00 | 0.00 | 19 | 1015.2 |
| 20260504234704 | 69 | 271 | 4.3 | 10.4 | 0.00 | 0.00 | 0.00 | 20 | 1015.2 |
| 20260504234203 | 69 | 262 | 5.2 | 11.3 | 0.00 | 0.00 | 0.00 | 20 | 1015.2 |
| 20260504233703 | 69 | 248 | 6.1 | 14.8 | 0.00 | 0.00 | 0.00 | 19 | 1015.2 |
| 20260504233203 | 69 | 268 | 7.0 | 12.2 | 0.00 | 0.00 | 0.00 | 20 | 1015.2 |
| 20260504231704 | 70 | 280 | 5.2 | 14.8 | 0.00 | 0.00 | 0.00 | 19 | 1015.2 |
| 20260504231204 | 70 | 251 | 7.8 | 11.3 | 0.00 | 0.00 | 0.00 | 19 | 1015.2 |